Flag for Switzerland Weather past 2 weeks in Bellinzona, Ticino, Switzerland

Now
62 °F

Mild.


Feels Like: 62 °F
Forecast: 61 / 85 °F
Wind: 3 mph from Northwest

Location: Locarno-Magadino

Current Time: Jul 29, 2014 at 7:33:47 PM

Latest Report: Jul 29, 2014 at 6:00 PM


Visibility: N/A

Pressure: 29.81 "Hg

Humidity: 92%

Dew point: 60 °F

Location of BellinzonaLocation

Historic Weather in Bellinzona — Graph

°F

Bellinzona temperature yesterday

Maximum temperature yesterday: 74 °F (at 1:00 PM)
Minimum temperature yesterday: 60 °F (at 4:00 AM)
Average temperature yesterday: 66 °F

Past Weeks' High & Low Weather Summary

 TemperatureHumidityPressure
High87 °F (Jul 18, 4:00 PM)100% (Jul 24, 2:00 AM)30.15 "Hg (Jul 24, 2:00 AM)
Low60 °F (Jul 15, 5:00 AM)43% (Jul 18, 12:00 PM)29.74 "Hg (Jul 29, 7:00 AM)
Average70 °F79%29.93 "Hg
* Reported Jul 14 6:00 PM — Jul 29 6:00 PM, Bellinzona, Weather by CustomWeather, © 2014

Note: Actual official high and low records may vary slightly from our data, if they occured in-between our weather recording intervals... More about our weather records

Advertising

Bellinzona weather history for previous 24 hours

 ConditionsComfort  
Time TempWeatherWind HumidityBarometerVisibility
6:00 PM
Jul 29
62 °FMild.3 mph92%29.81 "HgN/A
5:00 PM62 °FCool.7 mph96%29.81 "HgN/A
4:00 PM63 °FMild.5 mph90%29.83 "HgN/A
3:00 PM64 °FMild.3 mph87%29.80 "HgN/A
2:00 PM63 °FMild.5 mph90%29.82 "HgN/A
1:00 PM62 °FCool.2 mph95%29.82 "HgN/A
12:00 PM62 °FCool.6 mph95%29.80 "HgN/A
11:00 AM62 °FMild.3 mph90%29.80 "HgN/A
10:00 AM62 °FCool.8 mph92%29.79 "HgN/A
9:00 AM61 °FCool.2 mph97%29.79 "HgN/A
8:00 AM62 °FCool.1 mph92%29.78 "HgN/A
7:00 AM63 °FMild.2 mph91%29.74 "HgN/A
6:00 AM63 °FMild.10 mph89%29.75 "HgN/A
5:00 AM62 °FCool.1 mph99%29.75 "HgN/A
4:00 AM62 °FCool.2 mph98%29.75 "HgN/A
3:00 AM63 °FMild.10 mph91%29.77 "HgN/A
2:00 AM65 °FMild.1 mph98%29.75 "HgN/A
1:00 AM65 °FMild.2 mph98%29.76 "HgN/A
12:00 AM65 °FMild.1 mph98%29.79 "HgN/A
11:00 PM
Jul 28
65 °FMild.1 mph98%29.81 "HgN/A
10:00 PM65 °FMild.1 mph97%29.83 "HgN/A
9:00 PM66 °FMild.3 mph96%29.81 "HgN/A
8:00 PM67 °FMild.3 mph94%29.83 "HgN/A
7:00 PM67 °FMild.5 mph95%29.82 "HgN/A
Weather by CustomWeather, © 2014

See weather overviewHow to use our weather pages